Weather in Krasnopolye

Ukraine / Mykolaiv District     46°51′48″N   31°14′56″E
temp.,
°C
wind,
m/s
gust,
m/s
humid.,
%
clouds,
%
prec.,
mm/h
press.,
hPa
HPBL,
m
14 may, fri
fri1400:00+12sse3375100 0.0 100926
03:00+12s338376 0.1 100933
06:00+11sse33836 0.1 100731
09:00+16s566530 0.1 1008600
12:00+18s68652 0.0 1009753
15:00+19s676699 0.0 1009625
18:00+17s71070100 0.0 1009409
21:00+14ssw511866 0.0 1009231
15 may, sat
sat1500:00+14ssw513892 0.0 1010289
03:00+13ssw47931 0.0 1011140
06:00+12sw35888 0.0 101192
09:00+18sw4557100 0.0 1012444
12:00+21ssw555095 0.0 1013924
15:00+21s555532 0.0 1012761
18:00+19s566113 0.0 1012361
21:00+14ssw22820 0.0 101317
16 may, sun
sun1600:00+14s11830 0.0 101211
03:00+13ene22805 0.0 101214
06:00+13ene3378100 0.0 101243
09:00+18ne345693 0.0 1012324
12:00+23e454599 0.0 10111400
15:00+23s4446100 0.0 1010628
18:00+20w3560100 0.0 1008138
21:00+19nw4558100 0.0 100770
17 may, mon
mon1700:00+17nnw2267100 0.5 100726
03:00+16wnw597462 0.6 1006199
06:00+15n368230 0.0 1005141
09:00+20nw34626 0.0 1006628
12:00+23sw45474 0.0 10071399
15:00+22ssw78588 0.0 1007617
18:00+21w56620 1.3 10081021
21:00+16nw36810 1.8 1010104
18 may, tue
tue1800:00+15nw35840 0.0 101180
03:00+13nw34880 0.0 101253
06:00+13nnw22860 0.0 101225
09:00+18se01610 0.0 1013473
12:00+21s54500 0.0 1013845
15:00+21sse685265 0.0 1012693
18:00+19sse7106892 0.0 1011501
21:00+16sse6138298 0.0 1010348